Weather in Krasnyy Oktyabr

Russia / Kurgan Oblast     55°39′09″N   64°48′40″E
temp.,
°C
wind,
m/s
gust,
m/s
humid.,
%
clouds,
%
prec.,
mm/h
press.,
hPa
HPBL,
m
12 may, wed
wed1223:00+14wnw224529 0.0 102718
02:00+12w224835 0.0 102720
05:00+11w355111 0.0 102773
08:00+17wnw473651 0.0 1026332
11:00+21nw4540100 0.0 1026876
14:00+23nnw46389 0.0 10262054
17:00+23n5636100 0.0 10262173
20:00+18n2251100 0.0 102630
13 may, thu
thu1323:00+14n115422 0.0 102711
02:00+13nw116061 0.0 102710
05:00+12w2464100 0.0 102756
08:00+19wnw47487 0.0 1026405
11:00+23nw573762 0.0 10251611
14:00+26nw582989 0.0 10242035
17:00+26nnw583110 0.0 10242397
20:00+21nw225120 0.0 102427
14 may, fri
fri1423:00+16e22665 0.0 102637
02:00+15e22715 0.0 102713
05:00+14sse227833 0.0 102813
08:00+20s23545 0.0 1028359
11:00+25sw33385 0.0 10271559
14:00+28w44295 0.0 10252605
17:00+28wsw462713 0.0 10242796
20:00+23sw22435 0.0 102334
15 may, sat
sat1523:00+20sw334857 0.0 102347
02:00+18wsw36504 0.0 102396
05:00+16wnw34595 0.1 102363
08:00+22wnw34425 0.1 1023280
11:00+27w453119 0.1 10221474
14:00+29w46285 0.0 10212304
17:00+29w572819 0.0 10202602
20:00+24wsw36425 0.0 1019104
16 may, sun
sun1623:00+20w313466 0.0 1019284
02:00+19w4135029 0.0 1019287
05:00+16w3859100 0.0 1020152
08:00+22wnw3647100 0.0 1020379
11:00+26nw353972 0.0 10201208
14:00+29nw463338 0.0 10202138
17:00+29nw353024 0.0 10192432
20:00+24sse01450 0.0 101911